Location: *
(50.6089°N, 2.2719°E)
Time: 01:51:05
(UTC+00:00)

ATLAS 3B R/B - Pass Details

Date: 18 October 2019
Orbit: 1029 x 1166 km, 63.8° (Epoch: 12 November)

Event Time Altitude Azimuth Distance (km) Brightness Sun altitude
Rises 18:56:42 0° 177° (S) 3,825 5.5 -20.2°
Reaches altitude 10° 18:59:48 10° 165° (SSE) 2,857 4.7 -20.7°
Enters shadow 19:01:19 16° 155° (SSE) 2,454 4.3 -21.0°
